{"data":{"norad_id":57815,"intl_designator":"2023-138H","name":"STARLINK-30398","alt_names":[],"object_type":"PAYLOAD","status":"ACTIVE","operator":null,"country":"US","launch_date":"2023-09-09","launch_site_code":"AFETR","launch_vehicle":null,"mission":null,"orbit_class":"UNKNOWN","rcs_meters":null,"size_class":null,"mass_kg":null,"dimensions":null,"purposes":["comms"],"wikipedia_slug":null,"has_3d_model":false,"image_url":null,"decayed_at":null,"tle_current":{"epoch":"2026-05-24T10:57:52.433568Z","epoch_age_seconds":115978,"freshness":"FRESH","line1":"1 57815U 23138H   26144.45685687  .00001468  00000+0  62863-4 0  9996","line2":"2 57815  43.0034 166.4868 0001563 276.5817  83.4857 15.27581030150229","mean_motion":15.2758103,"eccentricity":0.0001563,"inclination_deg":43.0034,"raan_deg":166.4868,"arg_perigee_deg":276.5817,"mean_anomaly_deg":83.4857,"bstar":6.2863e-5,"rev_number":15022,"period_min":94.266685152538,"perigee_km":481.97360894609,"apogee_km":484.1184147556,"semimajor_km":6861.1830118508,"source":"CELESTRAK","updated_at":"2026-05-25T13:38:18.409791Z"}}}